Location: Newark
(42.3070°N, 2.7230°E)
Time: 01:31:18
(UTC+00:00)

Envisat - Visible Passes

Search period start: 15 October 2019 00:00
Search period end: 25 October 2019 00:00
Orbit: 764 x 766 km, 98.1° (Epoch: 14 October)

Date Brightness Start Highest point End Pass type
(mag) Time Alt. Az. Time Alt. Az. Time Alt. Az.
15 Oct 5.4 18:56:40 10° SSW 19:00:43 24° W 19:04:46 10° NW visible
16 Oct 6.4 05:26:43 10° ENE 05:29:12 14° E 05:31:41 10° ESE visible
16 Oct 3.9 18:18:48 10° S 18:23:43 52° W 18:28:42 10° NNW visible
17 Oct 3.0 17:41:54 10° SSE 17:46:56 72° ENE 17:52:01 10° N visible
17 Oct 6.1 19:24:03 10° WSW 19:26:29 13° W 19:28:56 10° WNW visible
18 Oct 5.0 18:44:57 10° SSW 18:49:22 30° W 18:53:48 10° NW visible
19 Oct 6.7 05:17:00 10° ENE 05:17:48 10° E 05:18:35 10° E visible
19 Oct 3.4 18:07:24 10° S 18:12:26 66° WSW 18:17:30 10° NNW visible
20 Oct 3.1 17:30:45 10° SSE 17:35:43 57° ENE 17:40:42 10° N visible
20 Oct 5.8 19:11:48 10° SW 19:15:06 17° W 19:18:24 10° NW visible
21 Oct 4.5 18:33:21 10° SSW 18:38:02 37° W 18:42:45 10° NNW visible
22 Oct 3.1 17:56:05 10° SSE 18:01:10 83° WSW 18:06:17 10° NNW visible
23 Oct 3.3 17:19:41 10° SE 17:24:30 45° ENE 17:29:20 10° N visible
23 Oct 5.5 18:59:52 10° SW 19:03:43 22° W 19:07:36 10° NW visible
24 Oct 6.2 05:29:22 10° NE 05:32:14 15° E 05:35:05 10° SE visible
24 Oct 4.1 18:21:50 10° S 18:26:42 47° W 18:31:37 10° NNW visible
